Regional Weather Roundup
Issued by NWS

Home | Current Version | Previous Version | Graphics & Text | Print | Product List | Glossary On
Versions: 1 2 3 4 5 6 7 8 9 10 11 12 13 14 15 16 17 18 19 20 21 22 23 24 25 26 27 28 29 30 31 32 33 34 35 36 37 38 39 40 41 42 43 44 45 46 47 48 49 50
000
ASUS45 KCYS 200010
RWRWY

WYOMING REGIONAL WEATHER ROUNDUP
NATIONAL WEATHER SERVICE CHEYENNE WY
600 PM MDT SAT MAY 19 2018

NOTE:  "FAIR" INDICATES FEW OR NO CLOUDS BELOW 12,000 FEET
WITH NO SIGNIFICANT WEATHER AND/OR OBSTRUCTIONS TO VISIBILITY.

WYZ001-200100-
YELLOWSTONE NATIONAL PARK

CITY           SKY/WX    TMP DP  RH WIND       PRES   REMARKS
LK YELLOWSTONE   N/A     49  35  58 VRB3      30.17S
6HR MIN TEMP:  46; 6HR MAX TEMP:  53;

W YELLOWSTONE  NOT AVBL

$$
WYZ002>013-054>058-071-098>099-200100-
NORTHERN WYOMING

CITY           SKY/WX    TMP DP  RH WIND       PRES   REMARKS
JACKSON        CLOUDY    55  41  59 E15       30.09F
CODY           NOT AVBL
GREYBULL       FAIR      58  43  57 CALM      30.14F
6HR MIN TEMP:  50; 6HR MAX TEMP:  60; 6HR PCP:  0.03;

WORLAND        CLOUDY    54  45  71 CALM      30.15F
6HR MIN TEMP:  47; 6HR MAX TEMP:  55; 6HR PCP: TRACE;

SHERIDAN       CLOUDY    55  39  54 SE8       30.19F
6HR MIN TEMP:  47; 6HR MAX TEMP:  56;

BUFFALO        CLOUDY    50  39  66 S3        30.22S
6HR MIN TEMP:  41; 6HR MAX TEMP:  51;

GILLETTE       CLOUDY    53  36  52 E8        30.20F
6HR MIN TEMP:  46; 6HR MAX TEMP:  56;

NEWCASTLE      MOCLDY    46  43  87 SE3       30.24S

$$
WYZ014>020-022>026-101>103-200100-
CENTRAL WYOMING

CITY           SKY/WX    TMP DP  RH WIND       PRES   REMARKS
BIG PINEY      FAIR      56  41  57 SE16      30.12S
6HR MIN TEMP:  50; 6HR MAX TEMP:  58; 6HR PCP: TRACE;

PINEDALE       FAIR      54  37  54 E6        30.14S
DUBOIS         CLOUDY    46  37  71 SE15G21   30.18S
LANDER         CLOUDY    51  43  74 NE9       30.15F
6HR MIN TEMP:  48; 6HR MAX TEMP:  52;

RIVERTON       CLOUDY    51  42  71 NE5       30.17F
6HR MIN TEMP:  45; 6HR MAX TEMP:  51;

CASPER         CLOUDY    45  44  97 NE15      30.20S FOG
6HR MIN TEMP:  44; 6HR MAX TEMP:  48; 6HR PCP:  0.01;

DOUGLAS        CLOUDY    49  44  83 E7        30.21S
6HR MIN TEMP:  44; 6HR MAX TEMP:  50; 6HR PCP:  0.10;


$$
WYZ021-027>030-104>119-200100-
SOUTHERN WYOMING

CITY           SKY/WX    TMP DP  RH WIND       PRES   REMARKS
EVANSTON       FAIR      60  38  43 E12       30.08S
6HR MIN TEMP:  52; 6HR MAX TEMP:  62;

KEMMERER       FAIR      57  37  47 E14       30.11F
FORT BRIDGER   MOCLDY    62  38  40 SE9       30.12S
ROCK SPRINGS   FAIR      55  38  52 NE23      30.11R
6HR MIN TEMP:  51; 6HR MAX TEMP:  61;

DIXON          CLOUDY    55  39  54 N8        30.10R
RAWLINS        FAIR      53  37  54 E22G28    30.15R
6HR MIN TEMP:  52; 6HR MAX TEMP:  57;

SARATOGA       MOCLDY    55  36  47 E8G17     30.12S
LARAMIE        CLOUDY    45  37  73 E12       30.19R
6HR MIN TEMP:  43; 6HR MAX TEMP:  47;

CHEYENNE       CLOUDY    42  40  92 N10       30.21R
6HR MIN TEMP:  39; 6HR MAX TEMP:  42; 6HR PCP:  0.20;

TORRINGTON     LGT RAIN  43  42  97 NE10      30.22R
6HR MIN TEMP:  42; 6HR MAX TEMP:  44; 6HR PCP:  0.33;

PINE BLUFFS    DRIZZLE   43  41  93 N10       30.21R

$$



USA.gov is the U.S. government's official web portal to all federal, state and local government web resources and services.